Satellite: FALCON
Catalog number: 30776
Epoch time:      09159.39832820
Element set:     585
Inclination:      035.4325 deg
RA of node:       152.7327 deg
Eccentricity:    0.0001020
Arg of perigee:   249.6488 deg
Mean anomaly:     110.4118 deg
Mean motion:   15.03251510 rev/day
Decay rate:       2.75e-06 rev/day^2
Epoch rev:           12377
Checksum:              275

Satellite: MAST
Catalog number: 31126
Epoch time:      09159.77361224
Element set:    0615
Inclination:      097.9900 deg
RA of node:       214.9643 deg
Eccentricity:    0.0093781
Arg of perigee:   306.5286 deg
Mean anomaly:     052.7287 deg
Mean motion:   14.53499456 rev/day
Decay rate:        5.0e-07 rev/day^2
Epoch rev:           11381
Checksum:              312

Satellite: CAPE1
Catalog number: 31130
Epoch time:      09159.87304414
Element set:    0622
Inclination:      097.9927 deg
RA of node:       213.2625 deg
Eccentricity:    0.0101499
Arg of perigee:   311.7433 deg
Mean anomaly:     047.5102 deg
Mean motion:   14.52061910 rev/day
Decay rate:        5.6e-07 rev/day^2
Epoch rev:           11348
Checksum:              270

Satellite: COMPASS
Catalog number: 32787
Epoch time:      09160.33535350
Element set:     378
Inclination:      097.9428 deg
RA of node:       224.2265 deg
Eccentricity:    0.0017019
Arg of perigee:   058.0515 deg
Mean anomaly:     302.2349 deg
Mean motion:   14.81609494 rev/day
Decay rate:       1.86e-06 rev/day^2
Epoch rev:            6028
Checksum:              301

Satellite: AAUSAT2
Catalog number: 32788
Epoch time:      09159.62858473
Element set:    0385
Inclination:      097.9415 deg
RA of node:       223.5811 deg
Eccentricity:    0.0016704
Arg of perigee:   063.2621 deg
Mean anomaly:     297.0301 deg
Mean motion:   14.81733428 rev/day
Decay rate:       3.85e-06 rev/day^2
Epoch rev:           06018
Checksum:              311

Satellite: DO-64
Catalog number: 32789
Epoch time:      09159.71769118
Element set:    0400
Inclination:      097.9479 deg
RA of node:       223.8265 deg
Eccentricity:    0.0016868
Arg of perigee:   061.0182 deg
Mean anomaly:     299.2713 deg
Mean motion:   14.81715742 rev/day
Decay rate:       2.56e-06 rev/day^2
Epoch rev:           06019
Checksum:              339

Satellite: CO-66
Catalog number: 32791
Epoch time:      09160.71499669
Element set:     371
Inclination:      097.9454 deg
RA of node:       224.6347 deg
Eccentricity:    0.0017469
Arg of perigee:   056.6777 deg
Mean anomaly:     303.6097 deg
Mean motion:   14.81439754 rev/day
Decay rate:        4.5e-07 rev/day^2
Epoch rev:            6030
Checksum:              346

Satellite: RS-30
Catalog number: 32953
Epoch time:      09160.38227105
Element set:     325
Inclination:      082.5016 deg
RA of node:       261.4636 deg
Eccentricity:    0.0019091
Arg of perigee:   191.8284 deg
Mean anomaly:     168.2350 deg
Mean motion:   12.43001582 rev/day
Decay rate:        1.0e-07 rev/day^2
Epoch rev:            4742
Checksum:              262

Satellite: TACSAT-3
Catalog number: 35001
Epoch time:      09160.55327280
Element set:      22
Inclination:      040.4558 deg
RA of node:       286.3044 deg
Eccentricity:    0.0023447
Arg of perigee:   104.3275 deg
Mean anomaly:     256.0144 deg
Mean motion:   15.38809715 rev/day
Decay rate:      2.296e-05 rev/day^2
Epoch rev:             317
Checksum:              267

Satellite: PHARMSAT
Catalog number: 35002
Epoch time:      09160.47803088
Element set:      22
Inclination:      040.4691 deg
RA of node:       286.6217 deg
Eccentricity:    0.0026470
Arg of perigee:   107.3445 deg
Mean anomaly:     253.0290 deg
Mean motion:   15.39583379 rev/day
Decay rate:      2.222e-05 rev/day^2
Epoch rev:             315
Checksum:              266

Satellite: HAWKSAT1
Catalog number: 35003
Epoch time:      09160.53930637
Element set:      23
Inclination:      040.4709 deg
RA of node:       286.2124 deg
Eccentricity:    0.0027203
Arg of perigee:   112.2188 deg
Mean anomaly:     248.1517 deg
Mean motion:   15.39846457 rev/day
Decay rate:      1.806e-05 rev/day^2
Epoch rev:             317
Checksum:              269

Satellite: CP6
Catalog number: 35004
Epoch time:      09159.75958012
Element set:      17
Inclination:      040.4624 deg
RA of node:       290.8454 deg
Eccentricity:    0.0026886
Arg of perigee:   106.3331 deg
Mean anomaly:     254.0441 deg
Mean motion:   15.40000209 rev/day
Decay rate:      4.360e-05 rev/day^2
Epoch rev:             304
Checksum:              255

Satellite: AEROCUB3
Catalog number: 35005
Epoch time:      09160.02147868
Element set:      17
Inclination:      040.4757 deg
RA of node:       289.3372 deg
Eccentricity:    0.0026564
Arg of perigee:   105.6785 deg
Mean anomaly:     254.6964 deg
Mean motion:   15.39815331 rev/day
Decay rate:      4.650e-05 rev/day^2
Epoch rev:             308
Checksum:              301

/EX




_______________________________________________
Via the Keps mailing list courtesy of AMSAT-NA
http://amsat.org/mailman/listinfo/keps

--- ViaMAIL!/WC v1.60d
 * Origin: Chowdanet (401-724-4410) telnet://chowdanet.com  (1:323/120)